Location: Eschertshofen
(49.3064°N, 11.5756°E)
Time: 15:01:06
(UTC+00:00)

KORONAS-FOTON - Pass Details

Date: 18 September 2020
Orbit: 505 x 532 km, 82.4° (Epoch: 27 October)

Event Time Altitude Azimuth Distance (km) Brightness Sun altitude
Rises 19:20:31 0° 349° (N) 2,688 8.0 -19.8°
Reaches altitude 10° 19:22:40 10° 350° (N) 1,795 7.0 -20.1°
Maximum altitude 19:26:38 88° 259° (WSW) 540 3.8 -20.6°
Enters shadow 19:27:27 55° 175° (S) 648 4.0 -20.8°
